AEE764 LGAV-EFHK

Flight info

Callsign AEE764
Flight time 3h 24m
Altitude 34000
Route KRO T162 NEVRA UT162 KOROS UN133 ATFIR DCT OVDOT DCT KEKED DCT LOGDA/N0457F350 DCT BULEP DCT BOKSU DCT INBOV DCT GUNTA M857 SOKVA DCT ANAMA DCT KEMET Q11 INTOR
Aircraft A321/M-SDE3FGHIRWY/LB1

Departure

Time 2026-04-20 14:08
Airport Athens Eleftherios Venizelos International Airport (LGAV)

Arrival

Time 2026-04-20 17:33
Airport Helsinki Vantaa Airport (EFHK)
Time Latitude Longitude Altitude Speed Heading
2026-04-20 13:26 37.92830 23.93997 303 ft 0 kts 37°
2026-04-20 13:56 37.92823 23.93990 301 ft 4 kts 37°
2026-04-20 13:56 37.92801 23.93970 301 ft 4 kts 37°
2026-04-20 13:56 37.92783 23.93951 301 ft 4 kts 68°
2026-04-20 13:56 37.92782 23.93921 300 ft 4 kts 113°
2026-04-20 13:57 37.92795 23.93893 302 ft 2 kts 127°
2026-04-20 13:57 37.92796 23.93890 302 ft 0 kts 127°
2026-04-20 14:00 37.92796 23.93891 302 ft 0 kts 127°
2026-04-20 14:00 37.92788 23.93903 300 ft 4 kts 127°
2026-04-20 14:01 37.92763 23.93945 300 ft 7 kts 127°
2026-04-20 14:01 37.92733 23.93996 301 ft 8 kts 127°
2026-04-20 14:01 37.92689 23.94070 301 ft 13 kts 127°
2026-04-20 14:01 37.92634 23.94161 304 ft 13 kts 127°
2026-04-20 14:02 37.92596 23.94258 303 ft 12 kts 86°
2026-04-20 14:02 37.92655 23.94339 303 ft 14 kts 36°
2026-04-20 14:02 37.92743 23.94422 304 ft 18 kts 37°
2026-04-20 14:02 37.92853 23.94527 301 ft 22 kts 37°
2026-04-20 14:03 37.92985 23.94651 302 ft 25 kts 37°
2026-04-20 14:03 37.93136 23.94794 301 ft 29 kts 37°
2026-04-20 14:03 37.93303 23.94952 300 ft 30 kts 37°
2026-04-20 14:03 37.93472 23.95113 298 ft 30 kts 37°
2026-04-20 14:04 37.93643 23.95273 301 ft 30 kts 37°
2026-04-20 14:04 37.93812 23.95434 297 ft 30 kts 36°
2026-04-20 14:04 37.93978 23.95593 297 ft 30 kts 36°
2026-04-20 14:04 37.94144 23.95749 299 ft 29 kts 37°
2026-04-20 14:05 37.94305 23.95904 300 ft 29 kts 37°
2026-04-20 14:05 37.94463 23.96053 300 ft 28 kts 37°
2026-04-20 14:05 37.94601 23.96185 300 ft 20 kts 38°
2026-04-20 14:05 37.94660 23.96255 302 ft 8 kts 79°
2026-04-20 14:06 37.94633 23.96316 301 ft 5 kts 150°
2026-04-20 14:06 37.94628 23.96318 300 ft 0 kts 158°
2026-04-20 14:06 37.94602 23.96322 296 ft 9 kts 180°
2026-04-20 14:07 37.94514 23.96318 294 ft 15 kts 173°
2026-04-20 14:07 37.94448 23.96315 293 ft 9 kts 210°
2026-04-20 14:07 37.94439 23.96307 289 ft 0 kts 214°
2026-04-20 14:07 37.94432 23.96301 293 ft 6 kts 216°
2026-04-20 14:08 37.94252 23.96130 288 ft 67 kts 217°
2026-04-20 14:08 37.93706 23.95611 279 ft 128 kts 217°
2026-04-20 14:08 37.92879 23.94828 385 ft 165 kts 217°
2026-04-20 14:08 37.91960 23.94002 1135 ft 161 kts 211°
2026-04-20 14:09 37.90942 23.93357 1853 ft 162 kts 205°
2026-04-20 14:09 37.89895 23.92758 2333 ft 173 kts 208°
2026-04-20 14:09 37.88746 23.92032 2516 ft 195 kts 209°
2026-04-20 14:09 37.87477 23.91191 2678 ft 215 kts 211°
2026-04-20 14:10 37.86086 23.90255 2828 ft 237 kts 209°
2026-04-20 14:10 37.84608 23.89256 3387 ft 243 kts 210°
2026-04-20 14:10 37.83106 23.88240 4005 ft 249 kts 210°
2026-04-20 14:10 37.81394 23.87580 4370 ft 268 kts 184°
2026-04-20 14:11 37.79541 23.88041 4966 ft 279 kts 155°
2026-04-20 14:11 37.78017 23.89567 5651 ft 285 kts 127°
2026-04-20 14:11 37.77171 23.91829 6324 ft 288 kts 100°
2026-04-20 14:11 37.77066 23.94356 6931 ft 290 kts 86°
2026-04-20 14:12 37.77164 23.96908 7540 ft 292 kts 85°
2026-04-20 14:12 37.77287 23.99476 8164 ft 294 kts 85°
2026-04-20 14:12 37.77418 24.02071 8797 ft 297 kts 85°
2026-04-20 14:12 37.77552 24.04687 9407 ft 300 kts 85°
2026-04-20 14:13 37.77687 24.07325 10011 ft 302 kts 85°
2026-04-20 14:13 37.77825 24.10047 10227 ft 320 kts 85°
2026-04-20 14:13 37.77968 24.12940 10358 ft 339 kts 85°
2026-04-20 14:13 37.78118 24.15985 10481 ft 356 kts 85°
2026-04-20 14:14 37.78275 24.19177 10606 ft 372 kts 85°
2026-04-20 14:14 37.78510 24.21345 10685 ft 380 kts 74°
2026-04-20 14:14 37.80088 24.25378 10940 ft 389 kts 47°
2026-04-20 14:14 37.82138 24.27592 11337 ft 388 kts 27°
2026-04-20 14:15 37.84588 24.29006 11805 ft 388 kts 20°
2026-04-20 14:15 37.86283 24.29893 12149 ft 390 kts 20°
2026-04-20 14:15 37.88795 24.31196 12664 ft 391 kts 19°
2026-04-20 14:15 37.91321 24.32501 13171 ft 393 kts 19°
2026-04-20 14:16 37.93859 24.33814 13656 ft 395 kts 19°
2026-04-20 14:16 37.96409 24.35141 14099 ft 397 kts 19°
2026-04-20 14:16 37.98979 24.36482 14526 ft 400 kts 19°
2026-04-20 14:16 38.01553 24.37829 14955 ft 402 kts 19°
2026-04-20 14:17 38.04152 24.39190 15374 ft 405 kts 19°
2026-04-20 14:17 38.06759 24.40556 15805 ft 407 kts 19°
2026-04-20 14:17 38.09386 24.41935 16217 ft 409 kts 19°
2026-04-20 14:17 38.12023 24.43320 16605 ft 412 kts 19°
2026-04-20 14:18 38.14677 24.44713 17049 ft 414 kts 19°
2026-04-20 14:18 38.17350 24.46117 17412 ft 417 kts 19°
2026-04-20 14:18 38.20036 24.47526 17790 ft 419 kts 19°
2026-04-20 14:18 38.22742 24.48944 18156 ft 422 kts 19°
2026-04-20 14:19 38.25465 24.50375 18505 ft 424 kts 19°
2026-04-20 14:19 38.28198 24.51816 18839 ft 426 kts 19°
2026-04-20 14:19 38.30944 24.53266 19176 ft 428 kts 19°
2026-04-20 14:19 38.33706 24.54723 19514 ft 430 kts 19°
2026-04-20 14:20 38.36469 24.56181 19842 ft 432 kts 19°
2026-04-20 14:20 38.39264 24.57657 20182 ft 434 kts 19°
2026-04-20 14:20 38.42057 24.59137 20513 ft 436 kts 19°
2026-04-20 14:20 38.44865 24.60629 20839 ft 438 kts 19°
2026-04-20 14:21 38.47688 24.62127 21166 ft 440 kts 19°
2026-04-20 14:21 38.50521 24.63626 21490 ft 442 kts 19°
2026-04-20 14:21 38.53370 24.65137 21810 ft 444 kts 19°
2026-04-20 14:21 38.56225 24.66653 22137 ft 446 kts 19°
2026-04-20 14:22 38.59093 24.68173 22457 ft 447 kts 19°
2026-04-20 14:22 38.61975 24.69702 22775 ft 449 kts 19°
2026-04-20 14:22 38.64866 24.71241 23084 ft 451 kts 19°
2026-04-20 14:22 38.67767 24.72791 23396 ft 453 kts 19°
2026-04-20 14:23 38.70684 24.74348 23676 ft 455 kts 19°
2026-04-20 14:23 38.73611 24.75911 23923 ft 456 kts 19°
2026-04-20 14:23 38.76582 24.77498 24165 ft 458 kts 19°
2026-04-20 14:23 38.79500 24.79061 24398 ft 459 kts 19°
2026-04-20 14:24 38.82475 24.80655 24620 ft 460 kts 19°
2026-04-20 14:24 38.85400 24.82117 24824 ft 459 kts 14°
2026-04-20 14:24 38.88519 24.83324 25043 ft 459 kts 14°
2026-04-20 14:24 38.91576 24.84497 25337 ft 458 kts 14°
2026-04-20 14:25 38.94632 24.85668 25628 ft 458 kts 13°
2026-04-20 14:25 38.97679 24.86837 25915 ft 457 kts 14°
2026-04-20 14:25 39.00724 24.88008 26200 ft 457 kts 14°
2026-04-20 14:25 39.03770 24.89156 26481 ft 455 kts 11°
2026-04-20 14:26 39.06837 24.89820 26750 ft 451 kts
2026-04-20 14:26 39.09994 24.89822 27032 ft 447 kts 352°
2026-04-20 14:26 39.13046 24.89157 27298 ft 444 kts 343°
2026-04-20 14:26 39.15950 24.87869 27564 ft 441 kts 334°
2026-04-20 14:27 39.18712 24.86165 27840 ft 440 kts 332°
2026-04-20 14:27 39.21461 24.84451 28132 ft 439 kts 332°
2026-04-20 14:27 39.24211 24.82742 28430 ft 438 kts 333°
2026-04-20 14:27 39.26959 24.81037 28724 ft 437 kts 333°
2026-04-20 14:28 39.29698 24.79339 29021 ft 437 kts 333°
2026-04-20 14:28 39.32437 24.77642 29320 ft 436 kts 333°
2026-04-20 14:28 39.35165 24.75950 29613 ft 435 kts 333°
2026-04-20 14:28 39.37891 24.74255 29904 ft 434 kts 332°
2026-04-20 14:29 39.40606 24.72562 30175 ft 433 kts 332°
2026-04-20 14:29 39.43319 24.70866 30424 ft 432 kts 332°
2026-04-20 14:29 39.46021 24.69175 30677 ft 431 kts 332°
2026-04-20 14:29 39.48720 24.67486 30928 ft 430 kts 332°
2026-04-20 14:30 39.51409 24.65801 31180 ft 429 kts 332°
2026-04-20 14:30 39.54090 24.64119 31431 ft 428 kts 332°
2026-04-20 14:30 39.56764 24.62442 31664 ft 426 kts 333°
2026-04-20 14:30 39.59432 24.60769 31921 ft 425 kts 333°
2026-04-20 14:31 39.62092 24.59102 32158 ft 424 kts 333°
2026-04-20 14:31 39.64747 24.57436 32408 ft 423 kts 333°
2026-04-20 14:31 39.67391 24.55771 32639 ft 422 kts 332°
2026-04-20 14:31 39.70027 24.54109 32867 ft 421 kts 333°
2026-04-20 14:32 39.72662 24.52447 33109 ft 420 kts 333°
2026-04-20 14:32 39.75284 24.50791 33317 ft 419 kts 333°
2026-04-20 14:32 39.77906 24.49134 33557 ft 418 kts 333°
2026-04-20 14:32 39.80517 24.47484 33761 ft 417 kts 333°
2026-04-20 14:33 39.83127 24.45831 33943 ft 417 kts 333°
2026-04-20 14:33 39.85740 24.44176 33978 ft 419 kts 333°
2026-04-20 14:33 39.90995 24.40845 33981 ft 420 kts 333°
2026-04-20 14:34 39.96256 24.37505 33979 ft 421 kts 333°
2026-04-20 14:34 40.01522 24.34171 33977 ft 421 kts 333°
2026-04-20 14:35 40.06782 24.30818 33972 ft 421 kts 333°
2026-04-20 14:35 40.12044 24.27454 33979 ft 421 kts 333°
2026-04-20 14:36 40.17315 24.24090 33986 ft 422 kts 333°
2026-04-20 14:36 40.22583 24.20715 33986 ft 422 kts 333°
2026-04-20 14:37 40.27849 24.17332 33987 ft 421 kts 333°
2026-04-20 14:37 40.33110 24.13938 33982 ft 421 kts 332°
2026-04-20 14:38 40.38367 24.10547 33980 ft 421 kts 332°
2026-04-20 14:38 40.43664 24.07132 33983 ft 421 kts 333°
2026-04-20 14:39 40.48921 24.03744 33981 ft 421 kts 332°
2026-04-20 14:39 40.54172 24.00340 33977 ft 421 kts 332°
2026-04-20 14:40 40.59444 23.97120 33974 ft 421 kts 340°
2026-04-20 14:40 40.65183 23.95482 33972 ft 423 kts 347°
2026-04-20 14:41 40.70981 23.94116 33970 ft 423 kts 347°
2026-04-20 14:41 40.76766 23.92729 33965 ft 422 kts 347°
2026-04-20 14:42 40.82546 23.91339 33961 ft 422 kts 347°
2026-04-20 14:42 40.88326 23.89954 33958 ft 422 kts 347°
2026-04-20 14:43 40.94139 23.88562 33955 ft 422 kts 347°
2026-04-20 14:43 40.99913 23.87187 33951 ft 422 kts 347°
2026-04-20 14:44 41.05688 23.85804 33951 ft 421 kts 347°
2026-04-20 14:44 41.11453 23.84419 33944 ft 421 kts 347°
2026-04-20 14:45 41.17222 23.83029 33945 ft 421 kts 347°
2026-04-20 14:45 41.22988 23.81635 33946 ft 421 kts 346°
2026-04-20 14:46 41.28753 23.80233 33949 ft 421 kts 347°
2026-04-20 14:46 41.34518 23.78834 33946 ft 421 kts 346°
2026-04-20 14:47 41.40277 23.77442 33947 ft 420 kts 346°
2026-04-20 14:48 41.48916 23.75360 33948 ft 421 kts 347°
2026-04-20 14:48 41.54674 23.73963 33956 ft 420 kts 346°
2026-04-20 14:49 41.60425 23.72570 33955 ft 420 kts 347°
2026-04-20 14:49 41.66176 23.71173 33950 ft 420 kts 347°
2026-04-20 14:50 41.70954 23.70012 33950 ft 420 kts 346°
2026-04-20 14:50 41.76695 23.68610 33954 ft 420 kts 346°
2026-04-20 14:51 41.82475 23.67196 33950 ft 419 kts 346°
2026-04-20 14:51 41.88210 23.65787 33960 ft 419 kts 346°
2026-04-20 14:52 41.93947 23.64378 33962 ft 419 kts 346°
2026-04-20 14:52 41.99677 23.62965 33962 ft 419 kts 346°
2026-04-20 14:53 42.05402 23.61553 33952 ft 418 kts 346°
2026-04-20 14:53 42.11121 23.60138 33964 ft 418 kts 346°
2026-04-20 14:54 42.16835 23.58730 33968 ft 417 kts 346°
2026-04-20 14:54 42.22542 23.57313 33967 ft 417 kts 346°
2026-04-20 14:55 42.28251 23.55898 33962 ft 416 kts 346°
2026-04-20 14:55 42.33942 23.54487 33964 ft 416 kts 346°
2026-04-20 14:56 42.39631 23.53072 33967 ft 415 kts 346°
2026-04-20 14:56 42.45290 23.51654 33970 ft 415 kts 346°
2026-04-20 14:57 42.50987 23.50234 33971 ft 415 kts 346°
2026-04-20 14:57 42.56642 23.48821 33974 ft 414 kts 346°
2026-04-20 14:58 42.62299 23.47400 33977 ft 414 kts 346°
2026-04-20 14:58 42.67974 23.45965 33977 ft 413 kts 345°
2026-04-20 14:59 42.73628 23.44539 33977 ft 413 kts 345°
2026-04-20 14:59 42.79271 23.43123 33978 ft 412 kts 345°
2026-04-20 15:00 42.84910 23.41701 33970 ft 412 kts 345°
2026-04-20 15:00 42.90549 23.40264 33967 ft 412 kts 345°
2026-04-20 15:01 42.96182 23.38831 33974 ft 412 kts 345°
2026-04-20 15:01 43.01810 23.37405 33966 ft 411 kts 345°
2026-04-20 15:02 43.07441 23.35970 33968 ft 411 kts 345°
2026-04-20 15:02 43.13063 23.34540 33965 ft 411 kts 345°
2026-04-20 15:03 43.18687 23.33106 33969 ft 411 kts 345°
2026-04-20 15:03 43.24316 23.31667 33976 ft 411 kts 345°
2026-04-20 15:04 43.29939 23.30222 33978 ft 411 kts 345°
2026-04-20 15:04 43.35568 23.28764 33968 ft 411 kts 345°
2026-04-20 15:05 43.41192 23.27315 33973 ft 411 kts 344°
2026-04-20 15:05 43.46824 23.25863 33966 ft 412 kts 344°
2026-04-20 15:06 43.52453 23.24412 33962 ft 412 kts 344°
2026-04-20 15:06 43.58083 23.22947 33964 ft 412 kts 344°
2026-04-20 15:07 43.63718 23.21479 33965 ft 412 kts 344°
2026-04-20 15:07 43.69353 23.20015 33963 ft 412 kts 344°
2026-04-20 15:08 43.74993 23.18543 33962 ft 412 kts 344°
2026-04-20 15:08 43.80633 23.17089 33964 ft 413 kts 344°
2026-04-20 15:09 43.86278 23.15618 33962 ft 413 kts 343°
2026-04-20 15:09 43.91920 23.14130 33962 ft 413 kts 343°
2026-04-20 15:10 43.97564 23.12650 33961 ft 413 kts 343°
2026-04-20 15:10 44.03251 23.11147 33959 ft 413 kts 343°
2026-04-20 15:11 44.08900 23.09657 33956 ft 414 kts 343°
2026-04-20 15:11 44.14563 23.08174 33952 ft 414 kts 343°
2026-04-20 15:12 44.20218 23.06677 33951 ft 414 kts 343°
2026-04-20 15:12 44.25883 23.05168 33951 ft 414 kts 343°
2026-04-20 15:13 44.31552 23.03657 33951 ft 415 kts 343°
2026-04-20 15:13 44.37223 23.02146 33949 ft 415 kts 343°
2026-04-20 15:14 44.42907 23.00629 33947 ft 416 kts 343°
2026-04-20 15:14 44.48597 22.99111 33946 ft 417 kts 343°
2026-04-20 15:15 44.54291 22.97566 33945 ft 416 kts 341°
2026-04-20 15:15 44.59883 22.95572 33936 ft 413 kts 338°
2026-04-20 15:16 44.65389 22.93272 33938 ft 413 kts 337°
2026-04-20 15:16 44.70917 22.90984 33939 ft 414 kts 338°
2026-04-20 15:17 44.76469 22.88776 33938 ft 415 kts 338°
2026-04-20 15:17 44.82045 22.86590 33940 ft 416 kts 339°
2026-04-20 15:18 44.87624 22.84393 33938 ft 416 kts 338°
2026-04-20 15:18 44.93207 22.82180 33937 ft 417 kts 338°
2026-04-20 15:19 44.98789 22.79959 33946 ft 417 kts 338°
2026-04-20 15:19 45.04379 22.77723 33941 ft 417 kts 338°
2026-04-20 15:20 45.09965 22.75481 33952 ft 418 kts 338°
2026-04-20 15:20 45.15557 22.73236 33958 ft 418 kts 338°
2026-04-20 15:21 45.21153 22.70996 33956 ft 419 kts 338°
2026-04-20 15:21 45.26771 22.68734 33954 ft 420 kts 338°
2026-04-20 15:22 45.32409 22.66459 33947 ft 422 kts 338°
2026-04-20 15:22 45.38035 22.64195 33944 ft 424 kts 339°
2026-04-20 15:23 45.43765 22.61871 33949 ft 426 kts 339°
2026-04-20 15:23 45.49480 22.59549 33954 ft 428 kts 339°
2026-04-20 15:24 45.55255 22.57199 33955 ft 430 kts 339°
2026-04-20 15:24 45.61017 22.54857 33963 ft 431 kts 339°
2026-04-20 15:25 45.66791 22.52514 33966 ft 432 kts 339°
2026-04-20 15:25 45.72568 22.50140 33962 ft 432 kts 339°
2026-04-20 15:26 45.77380 22.48155 33962 ft 433 kts 339°
2026-04-20 15:26 45.83176 22.45771 33966 ft 434 kts 339°
2026-04-20 15:27 45.88975 22.43393 33965 ft 434 kts 339°
2026-04-20 15:27 45.94781 22.41001 33966 ft 434 kts 339°
2026-04-20 15:28 46.00593 22.38596 33950 ft 435 kts 339°
2026-04-20 15:28 46.06409 22.36192 33955 ft 435 kts 339°
2026-04-20 15:29 46.12234 22.33769 33953 ft 436 kts 339°
2026-04-20 15:29 46.18065 22.31345 33952 ft 437 kts 339°
2026-04-20 15:30 46.23912 22.28906 33952 ft 437 kts 339°
2026-04-20 15:30 46.29760 22.26458 33945 ft 438 kts 339°
2026-04-20 15:31 46.35612 22.24012 33949 ft 438 kts 339°
2026-04-20 15:31 46.41475 22.21551 33949 ft 438 kts 339°
2026-04-20 15:32 46.47329 22.19083 33948 ft 438 kts 339°
2026-04-20 15:32 46.53189 22.16610 33940 ft 439 kts 339°
2026-04-20 15:33 46.59052 22.14131 33939 ft 439 kts 339°
2026-04-20 15:33 46.64953 22.11634 33939 ft 439 kts 339°
2026-04-20 15:34 46.70774 22.09163 33937 ft 439 kts 339°
2026-04-20 15:34 46.76672 22.06646 33939 ft 439 kts 339°
2026-04-20 15:35 46.82531 22.04148 33942 ft 439 kts 339°
2026-04-20 15:35 46.88386 22.01645 33946 ft 439 kts 339°
2026-04-20 15:36 46.94245 21.99139 33949 ft 439 kts 339°
2026-04-20 15:36 47.00099 21.96622 33947 ft 439 kts 339°
2026-04-20 15:37 47.05958 21.94099 33947 ft 439 kts 339°
2026-04-20 15:37 47.11832 21.91567 33946 ft 440 kts 339°
2026-04-20 15:38 47.17698 21.89028 33944 ft 440 kts 339°
2026-04-20 15:38 47.23568 21.86483 33945 ft 440 kts 339°
2026-04-20 15:39 47.29449 21.83927 33944 ft 441 kts 339°
2026-04-20 15:39 47.35333 21.81365 33945 ft 441 kts 339°
2026-04-20 15:40 47.41225 21.78792 33949 ft 442 kts 339°
2026-04-20 15:40 47.47114 21.76204 33944 ft 442 kts 339°
2026-04-20 15:41 47.53013 21.73604 33944 ft 443 kts 339°
2026-04-20 15:41 47.58921 21.71014 33944 ft 443 kts 339°
2026-04-20 15:42 47.64838 21.68422 33943 ft 444 kts 339°
2026-04-20 15:42 47.70761 21.65815 33940 ft 444 kts 339°
2026-04-20 15:43 47.76683 21.63193 33955 ft 444 kts 339°
2026-04-20 15:43 47.82608 21.60550 33960 ft 444 kts 339°
2026-04-20 15:44 47.88533 21.57911 33975 ft 445 kts 339°
2026-04-20 15:44 47.94469 21.55273 33970 ft 445 kts 339°
2026-04-20 15:45 48.00403 21.52617 33973 ft 445 kts 339°
2026-04-20 15:45 48.06345 21.49959 33975 ft 446 kts 339°
2026-04-20 15:46 48.12323 21.47279 33963 ft 446 kts 339°
2026-04-20 15:46 48.18265 21.44599 33960 ft 446 kts 339°
2026-04-20 15:47 48.24208 21.41910 33951 ft 446 kts 339°
2026-04-20 15:47 48.30154 21.39217 33945 ft 446 kts 339°
2026-04-20 15:48 48.36088 21.36539 33946 ft 446 kts 339°
2026-04-20 15:48 48.42048 21.33841 33955 ft 446 kts 339°
2026-04-20 15:49 48.48078 21.31582 33992 ft 452 kts 354°
2026-04-20 15:49 48.51242 21.31880 34156 ft 458 kts
2026-04-20 15:49 48.54394 21.32599 34287 ft 459 kts
2026-04-20 15:49 48.57550 21.33341 34448 ft 459 kts
2026-04-20 15:50 48.60704 21.34094 34590 ft 459 kts
2026-04-20 15:50 48.63858 21.34854 34720 ft 459 kts
2026-04-20 15:50 48.67012 21.35612 34877 ft 459 kts
2026-04-20 15:51 48.73332 21.37121 34948 ft 460 kts
2026-04-20 15:51 48.79654 21.38615 34941 ft 460 kts
2026-04-20 15:52 48.85982 21.40117 34941 ft 460 kts
2026-04-20 15:52 48.92306 21.41637 34934 ft 460 kts
2026-04-20 15:53 49.01806 21.43930 34944 ft 461 kts
2026-04-20 15:53 49.08148 21.45461 34952 ft 462 kts
2026-04-20 15:54 49.14497 21.46999 34960 ft 462 kts
2026-04-20 15:54 49.20851 21.48535 34960 ft 462 kts
2026-04-20 15:55 49.27212 21.50071 34968 ft 463 kts
2026-04-20 15:55 49.33566 21.51621 34975 ft 462 kts
2026-04-20 15:56 49.39922 21.53179 34980 ft 463 kts
2026-04-20 15:56 49.46279 21.54738 34984 ft 463 kts
2026-04-20 15:57 49.52668 21.56302 34983 ft 462 kts
2026-04-20 15:57 49.59025 21.57867 34989 ft 462 kts
2026-04-20 15:58 49.65374 21.59432 34994 ft 462 kts
2026-04-20 15:58 49.71727 21.61001 34994 ft 462 kts
2026-04-20 15:59 49.78079 21.62575 34995 ft 462 kts
2026-04-20 15:59 49.84424 21.64154 34998 ft 462 kts
2026-04-20 16:00 49.90775 21.65743 35004 ft 462 kts
2026-04-20 16:00 49.97118 21.67332 35016 ft 462 kts
2026-04-20 16:01 50.02391 21.68650 35017 ft 462 kts
2026-04-20 16:01 50.08732 21.70243 35024 ft 461 kts
2026-04-20 16:02 50.15061 21.71842 34995 ft 459 kts
2026-04-20 16:02 50.21365 21.73435 35001 ft 458 kts
2026-04-20 16:03 50.27658 21.75020 34999 ft 458 kts
2026-04-20 16:03 50.33944 21.76610 35002 ft 457 kts
2026-04-20 16:04 50.40223 21.78211 35001 ft 457 kts
2026-04-20 16:04 50.46513 21.79822 35014 ft 458 kts
2026-04-20 16:05 50.52810 21.81435 35020 ft 459 kts
2026-04-20 16:05 50.59118 21.83058 35030 ft 459 kts
2026-04-20 16:06 50.65426 21.84672 35034 ft 459 kts
2026-04-20 16:06 50.71735 21.86305 35040 ft 460 kts
2026-04-20 16:07 50.78089 21.87955 35045 ft 459 kts
2026-04-20 16:07 50.84390 21.89580 35041 ft 459 kts
2026-04-20 16:08 50.90693 21.91222 35051 ft 458 kts
2026-04-20 16:08 50.96982 21.92869 35048 ft 458 kts
2026-04-20 16:09 51.03271 21.94520 35048 ft 458 kts
2026-04-20 16:09 51.09547 21.96165 35056 ft 457 kts
2026-04-20 16:10 51.15822 21.97816 35058 ft 457 kts
2026-04-20 16:10 51.22090 21.99472 35057 ft 456 kts
2026-04-20 16:11 51.28350 22.01131 35053 ft 456 kts
2026-04-20 16:11 51.34602 22.02788 35059 ft 455 kts
2026-04-20 16:12 51.40856 22.04449 35052 ft 455 kts
2026-04-20 16:12 51.47095 22.06111 35060 ft 455 kts
2026-04-20 16:13 51.53335 22.07791 35060 ft 454 kts
2026-04-20 16:13 51.59563 22.09469 35063 ft 454 kts
2026-04-20 16:14 51.65787 22.11136 35065 ft 453 kts
2026-04-20 16:14 51.72007 22.12803 35068 ft 453 kts
2026-04-20 16:15 51.78216 22.14477 35071 ft 452 kts
2026-04-20 16:15 51.84422 22.16164 35076 ft 452 kts
2026-04-20 16:16 51.90615 22.17868 35074 ft 451 kts
2026-04-20 16:16 51.96805 22.19564 35083 ft 451 kts
2026-04-20 16:17 52.02995 22.21240 35080 ft 451 kts
2026-04-20 16:17 52.09175 22.22926 35085 ft 450 kts
2026-04-20 16:18 52.15358 22.24630 35091 ft 450 kts
2026-04-20 16:18 52.21533 22.26334 35092 ft 450 kts
2026-04-20 16:19 52.27673 22.28042 35092 ft 449 kts
2026-04-20 16:19 52.33861 22.29765 35098 ft 449 kts
2026-04-20 16:20 52.40029 22.31472 35092 ft 449 kts
2026-04-20 16:20 52.46186 22.33179 35100 ft 449 kts
2026-04-20 16:21 52.52346 22.34907 35100 ft 449 kts
2026-04-20 16:21 52.58544 22.36662 35105 ft 449 kts
2026-04-20 16:22 52.64704 22.38398 35102 ft 449 kts
2026-04-20 16:22 52.70856 22.40126 35112 ft 448 kts
2026-04-20 16:23 52.77006 22.41864 35113 ft 448 kts
2026-04-20 16:23 52.83110 22.44045 35108 ft 449 kts 12°
2026-04-20 16:24 52.89127 22.46623 35113 ft 449 kts 12°
2026-04-20 16:24 52.95217 22.49221 35115 ft 449 kts 12°
2026-04-20 16:25 53.01280 22.51699 35110 ft 449 kts 11°
2026-04-20 16:25 53.07347 22.54133 35121 ft 448 kts 11°
2026-04-20 16:26 53.13408 22.56584 35118 ft 448 kts 12°
2026-04-20 16:26 53.19459 22.59061 35127 ft 448 kts 12°
2026-04-20 16:27 53.25506 22.61543 35121 ft 447 kts 12°
2026-04-20 16:27 53.31546 22.64031 35132 ft 447 kts 12°
2026-04-20 16:28 53.37582 22.66527 35131 ft 447 kts 12°
2026-04-20 16:28 53.43617 22.69025 35133 ft 447 kts 12°
2026-04-20 16:29 53.49648 22.71515 35139 ft 446 kts 12°
2026-04-20 16:29 53.55674 22.74024 35141 ft 446 kts 12°
2026-04-20 16:30 53.61690 22.76551 35145 ft 445 kts 12°
2026-04-20 16:30 53.67704 22.79061 35142 ft 445 kts 12°
2026-04-20 16:31 53.73710 22.81576 35146 ft 445 kts 12°
2026-04-20 16:31 53.79715 22.84110 35146 ft 445 kts 12°
2026-04-20 16:32 53.85722 22.86653 35154 ft 445 kts 12°
2026-04-20 16:32 53.91731 22.89195 35159 ft 445 kts 12°
2026-04-20 16:33 53.97733 22.91748 35154 ft 445 kts 12°
2026-04-20 16:33 54.03766 22.94324 35164 ft 444 kts 12°
2026-04-20 16:34 54.09761 22.96880 35161 ft 444 kts 12°
2026-04-20 16:34 54.15713 22.99430 35157 ft 444 kts 12°
2026-04-20 16:35 54.21730 23.02026 35161 ft 443 kts 12°
2026-04-20 16:35 54.27711 23.04620 35164 ft 443 kts 12°
2026-04-20 16:36 54.33697 23.07050 35173 ft 442 kts
2026-04-20 16:36 54.38730 23.08584 35166 ft 441 kts
2026-04-20 16:37 54.44792 23.10217 35167 ft 441 kts
2026-04-20 16:37 54.50847 23.11948 35182 ft 441 kts
2026-04-20 16:38 54.56889 23.13800 35173 ft 441 kts
2026-04-20 16:38 54.62928 23.15675 35172 ft 441 kts
2026-04-20 16:39 54.68961 23.17541 35181 ft 440 kts
2026-04-20 16:39 54.74994 23.19402 35183 ft 440 kts
2026-04-20 16:40 54.81025 23.21255 35177 ft 440 kts
2026-04-20 16:40 54.87049 23.23123 35183 ft 440 kts
2026-04-20 16:41 54.93072 23.25002 35185 ft 440 kts
2026-04-20 16:41 54.99090 23.26892 35185 ft 439 kts
2026-04-20 16:42 55.05103 23.28774 35190 ft 439 kts
2026-04-20 16:42 55.11113 23.30649 35188 ft 439 kts
2026-04-20 16:43 55.17125 23.32529 35191 ft 439 kts
2026-04-20 16:43 55.23132 23.34417 35192 ft 439 kts
2026-04-20 16:44 55.29176 23.36335 35191 ft 439 kts
2026-04-20 16:44 55.35182 23.38257 35196 ft 438 kts
2026-04-20 16:45 55.41184 23.40166 35198 ft 438 kts
2026-04-20 16:45 55.47181 23.42124 35197 ft 438 kts
2026-04-20 16:46 55.53155 23.44300 35200 ft 438 kts 10°
2026-04-20 16:46 55.59127 23.46544 35208 ft 439 kts 10°
2026-04-20 16:47 55.65102 23.48751 35208 ft 439 kts 10°
2026-04-20 16:47 55.71079 23.50938 35214 ft 439 kts 10°
2026-04-20 16:48 55.77059 23.53125 35216 ft 439 kts 10°
2026-04-20 16:48 55.83037 23.55317 35214 ft 438 kts 10°
2026-04-20 16:49 55.89010 23.57517 35212 ft 438 kts 10°
2026-04-20 16:49 55.94984 23.59731 35212 ft 439 kts 11°
2026-04-20 16:50 56.00961 23.61953 35209 ft 439 kts 11°
2026-04-20 16:50 56.06943 23.64185 35216 ft 439 kts 11°
2026-04-20 16:51 56.12933 23.66437 35220 ft 440 kts 11°
2026-04-20 16:51 56.18924 23.68687 35223 ft 440 kts 11°
2026-04-20 16:52 56.24913 23.70927 35223 ft 440 kts 11°
2026-04-20 16:52 56.30906 23.73189 35228 ft 440 kts 11°
2026-04-20 16:53 56.36897 23.75470 35228 ft 440 kts 11°
2026-04-20 16:53 56.42890 23.77818 35231 ft 441 kts 12°
2026-04-20 16:54 56.48874 23.80220 35234 ft 441 kts 12°
2026-04-20 16:54 56.54863 23.82617 35233 ft 440 kts 12°
2026-04-20 16:55 56.60847 23.85002 35237 ft 440 kts 12°
2026-04-20 16:55 56.66890 23.87254 35239 ft 440 kts 11°
2026-04-20 16:56 56.72900 23.89403 35239 ft 440 kts 11°
2026-04-20 16:56 56.78904 23.91595 35240 ft 440 kts 11°
2026-04-20 16:57 56.84910 23.93846 35241 ft 440 kts 11°
2026-04-20 16:57 56.90906 23.96098 35243 ft 440 kts 11°
2026-04-20 16:58 56.96922 23.98230 35243 ft 440 kts 10°
2026-04-20 16:58 57.02952 24.00193 35242 ft 440 kts 10°
2026-04-20 16:59 57.08988 24.02153 35243 ft 440 kts 10°
2026-04-20 16:59 57.15014 24.04172 35245 ft 440 kts 11°
2026-04-20 17:00 57.24053 24.07236 35249 ft 440 kts 11°
2026-04-20 17:01 57.30076 24.09275 35250 ft 440 kts 11°
2026-04-20 17:01 57.36098 24.11311 35252 ft 440 kts 11°
2026-04-20 17:02 57.42114 24.13366 35242 ft 439 kts 11°
2026-04-20 17:02 57.48110 24.15424 35235 ft 438 kts 11°
2026-04-20 17:03 57.54100 24.17470 35235 ft 437 kts 11°
2026-04-20 17:03 57.60086 24.19527 35233 ft 437 kts 11°
2026-04-20 17:04 57.66068 24.21597 35236 ft 437 kts 12°
2026-04-20 17:04 57.72053 24.23685 35246 ft 438 kts 12°
2026-04-20 17:05 57.78047 24.25769 35256 ft 438 kts 12°
2026-04-20 17:05 57.84038 24.27845 35262 ft 438 kts 12°
2026-04-20 17:06 57.90036 24.29936 35263 ft 438 kts 12°
2026-04-20 17:06 57.96027 24.32008 35274 ft 438 kts 12°
2026-04-20 17:07 58.02024 24.34053 35272 ft 438 kts 12°
2026-04-20 17:07 58.08009 24.36106 35279 ft 437 kts 12°
2026-04-20 17:08 58.13994 24.38167 35289 ft 437 kts 12°
2026-04-20 17:08 58.19971 24.40237 35290 ft 436 kts 12°
2026-04-20 17:09 58.25942 24.42325 35292 ft 436 kts 13°
2026-04-20 17:09 58.31944 24.44445 35293 ft 436 kts 13°
2026-04-20 17:10 58.37903 24.46551 35296 ft 435 kts 13°
2026-04-20 17:10 58.43858 24.48639 35300 ft 435 kts 13°
2026-04-20 17:11 58.49814 24.50728 35301 ft 435 kts 13°
2026-04-20 17:11 58.54757 24.52464 35294 ft 434 kts 13°
2026-04-20 17:12 58.60692 24.54573 35297 ft 434 kts 13°
2026-04-20 17:12 58.66623 24.56700 35294 ft 433 kts 13°
2026-04-20 17:13 58.72553 24.58813 35295 ft 433 kts 13°
2026-04-20 17:13 58.78476 24.60937 35296 ft 433 kts 13°
2026-04-20 17:14 58.84395 24.63061 35299 ft 433 kts 13°
2026-04-20 17:14 58.90303 24.65185 35300 ft 432 kts 13°
2026-04-20 17:15 58.96212 24.67322 35101 ft 431 kts 13°
2026-04-20 17:15 58.99155 24.68392 34866 ft 429 kts 14°
2026-04-20 17:15 59.02085 24.69457 34627 ft 428 kts 14°
2026-04-20 17:15 59.05015 24.70522 34396 ft 427 kts 14°
2026-04-20 17:16 59.07928 24.71580 34060 ft 423 kts 14°
2026-04-20 17:16 59.10796 24.72622 33012 ft 415 kts 14°
2026-04-20 17:16 59.13636 24.73666 32227 ft 416 kts 15°
2026-04-20 17:16 59.16488 24.74721 31419 ft 419 kts 15°
2026-04-20 17:17 59.19363 24.75781 30520 ft 422 kts 15°
2026-04-20 17:17 59.22258 24.76850 29495 ft 425 kts 15°
2026-04-20 17:17 59.25166 24.77924 28568 ft 425 kts 15°
2026-04-20 17:17 59.28080 24.78997 27567 ft 427 kts 15°
2026-04-20 17:18 59.31011 24.80084 26495 ft 430 kts 15°
2026-04-20 17:18 59.33958 24.81184 25448 ft 432 kts 15°
2026-04-20 17:18 59.36923 24.82287 24416 ft 434 kts 15°
2026-04-20 17:18 59.39884 24.83420 23477 ft 431 kts 17°
2026-04-20 17:19 59.42712 24.85126 22647 ft 421 kts 23°
2026-04-20 17:19 59.45541 24.86582 21261 ft 420 kts
2026-04-20 17:19 59.48461 24.86233 19501 ft 421 kts 355°
2026-04-20 17:19 59.51321 24.85297 17682 ft 414 kts 355°
2026-04-20 17:20 59.54147 24.84440 15948 ft 406 kts 355°
2026-04-20 17:20 59.56883 24.83683 14444 ft 395 kts 356°
2026-04-20 17:20 59.59602 24.82979 12757 ft 385 kts 356°
2026-04-20 17:20 59.62223 24.82326 11277 ft 374 kts 356°
2026-04-20 17:21 59.64742 24.81694 10730 ft 350 kts 356°
2026-04-20 17:21 59.67061 24.81094 10424 ft 320 kts 356°
2026-04-20 17:21 59.69166 24.80538 10186 ft 291 kts 356°
2026-04-20 17:21 59.71150 24.80017 9873 ft 279 kts 356°
2026-04-20 17:22 59.73038 24.79530 9735 ft 271 kts 356°
2026-04-20 17:22 59.74878 24.79060 9593 ft 270 kts 357°
2026-04-20 17:22 59.76737 24.78581 9455 ft 269 kts 356°
2026-04-20 17:22 59.78592 24.78102 9329 ft 269 kts 356°
2026-04-20 17:23 59.80443 24.77626 9230 ft 269 kts 356°
2026-04-20 17:23 59.82293 24.77147 9103 ft 268 kts 356°
2026-04-20 17:23 59.84140 24.76663 8966 ft 267 kts 356°
2026-04-20 17:23 59.85920 24.76194 8836 ft 267 kts 356°
2026-04-20 17:24 59.87760 24.75709 8708 ft 266 kts 356°
2026-04-20 17:24 59.89618 24.75221 8575 ft 266 kts 356°
2026-04-20 17:24 59.91429 24.74744 8441 ft 265 kts 356°
2026-04-20 17:24 59.93265 24.74256 8096 ft 266 kts 356°
2026-04-20 17:25 59.95095 24.73769 7670 ft 265 kts 356°
2026-04-20 17:25 59.96925 24.73281 7241 ft 266 kts 356°
2026-04-20 17:25 59.98752 24.72794 6869 ft 263 kts 355°
2026-04-20 17:25 60.00531 24.72318 6376 ft 258 kts 355°
2026-04-20 17:26 60.02318 24.71843 5930 ft 259 kts 355°
2026-04-20 17:26 60.04103 24.71370 5500 ft 259 kts 355°
2026-04-20 17:26 60.05886 24.70899 5127 ft 257 kts 355°
2026-04-20 17:26 60.07635 24.70461 4966 ft 251 kts 357°
2026-04-20 17:27 60.09359 24.70455 4681 ft 246 kts
2026-04-20 17:27 60.11024 24.71072 4371 ft 241 kts 17°
2026-04-20 17:27 60.12648 24.72022 4025 ft 244 kts 17°
2026-04-20 17:27 60.14236 24.72979 3747 ft 232 kts 17°
2026-04-20 17:28 60.15739 24.73837 3526 ft 217 kts 17°
2026-04-20 17:28 60.17140 24.74643 3426 ft 197 kts 17°
2026-04-20 17:28 60.18424 24.75376 3109 ft 189 kts 16°
2026-04-20 17:28 60.19652 24.76040 2878 ft 173 kts 15°
2026-04-20 17:29 60.20780 24.76614 2590 ft 162 kts 15°
2026-04-20 17:29 60.21823 24.77166 2444 ft 153 kts 16°
2026-04-20 17:29 60.22836 24.77722 2240 ft 146 kts 16°
2026-04-20 17:29 60.23809 24.78266 2080 ft 147 kts 17°
2026-04-20 17:30 60.24728 24.78912 1882 ft 133 kts 21°
2026-04-20 17:30 60.25595 24.79709 1630 ft 136 kts 26°
2026-04-20 17:30 60.26409 24.80599 1476 ft 131 kts 30°
2026-04-20 17:30 60.27169 24.81648 1316 ft 134 kts 36°
2026-04-20 17:31 60.27868 24.82877 1181 ft 134 kts 41°
2026-04-20 17:31 60.28521 24.84263 987 ft 139 kts 47°
2026-04-20 17:31 60.29179 24.85714 798 ft 140 kts 43°
2026-04-20 17:31 60.29838 24.87163 623 ft 140 kts 46°
2026-04-20 17:32 60.30483 24.88608 416 ft 139 kts 44°
2026-04-20 17:32 60.31134 24.90037 236 ft 140 kts 46°
2026-04-20 17:32 60.31780 24.91455 158 ft 127 kts 44°
2026-04-20 17:32 60.32302 24.92601 170 ft 89 kts 47°
2026-04-20 17:33 60.32619 24.93298 180 ft 54 kts 47°
2026-04-20 17:33 60.32859 24.93830 182 ft 50 kts 47°
2026-04-20 17:33 60.33034 24.94223 194 ft 20 kts 55°
2026-04-20 17:33 60.33048 24.94503 186 ft 22 kts 93°
2026-04-20 17:34 60.33043 24.94778 179 ft 18 kts 84°
2026-04-20 17:34 60.33105 24.94979 178 ft 17 kts 76°
2026-04-20 17:34 60.33131 24.95218 178 ft 18 kts 57°
2026-04-20 17:34 60.33206 24.95412 182 ft 16 kts 71°
2026-04-20 17:35 60.33160 24.95607 181 ft 18 kts 136°
2026-04-20 17:35 60.33060 24.95780 181 ft 19 kts 146°
2026-04-20 17:35 60.32938 24.95925 177 ft 23 kts 150°
2026-04-20 17:35 60.32793 24.96095 173 ft 25 kts 150°
2026-04-20 17:36 60.32636 24.96280 172 ft 27 kts 150°
2026-04-20 17:36 60.32475 24.96469 174 ft 27 kts 150°
2026-04-20 17:36 60.32324 24.96641 169 ft 24 kts 150°
2026-04-20 17:36 60.32184 24.96803 166 ft 21 kts 149°
2026-04-20 17:37 60.32060 24.96949 166 ft 18 kts 150°
2026-04-20 17:37 60.31945 24.97070 166 ft 19 kts 153°
2026-04-20 17:37 60.31859 24.97160 166 ft 11 kts 153°
2026-04-20 17:37 60.31798 24.97222 166 ft 4 kts 153°
2026-04-20 17:38 60.31772 24.97216 166 ft 4 kts 221°
2026-04-20 17:38 60.31760 24.97170 166 ft 4 kts 241°
2026-04-20 17:38 60.31751 24.97137 166 ft 2 kts 243°
2026-04-20 17:38 60.31748 24.97125 167 ft 0 kts 243°